Simultaneous Nadir Overpasses (SNOs) Predictions

Prediction of SNOs between METOP-C and LANDSAT-8 Satellite Orbit:

Table of predicted SNOs for the next 14.0 days since TLE Epoch: 4/5/2025
Index Date (METOP-C) Time (METOP-C) Lat,Lon (METOP-C) SZA (METOP-C ) Date (LANDSAT-8) Time (LANDSAT-8) Lat,Lon (LANDSAT-8) SZA (LANDSAT-8 ) Distance(km) Time Diff (sec)
1 04/05/2025 09:02:56 -81.13, -96.26 103.14 04/05/2025 09:03:46 -81.13, -96.36 103.13 1.70 50
2 04/05/2025 09:53:34 81.16, 71.93 76.96 04/05/2025 09:53:11 81.16, 71.74 76.93 3.17 23
3 04/08/2025 04:37:17 -81.12, -30.25 104.23 04/08/2025 04:38:00 -81.12, -30.16 104.20 1.45 43
4 04/08/2025 05:27:55 81.15, 137.92 75.87 04/08/2025 05:27:25 81.15, 137.91 75.85 0.46 30
5 04/11/2025 00:11:36 -81.13, 36.38 105.22 04/11/2025 00:12:12 -81.13, 36.40 105.20 0.39 36
6 04/11/2025 01:02:14 81.16,-155.45 74.88 04/11/2025 01:01:37 81.15,-155.55 74.85 1.72 37
7 04/13/2025 19:45:54 -81.13, 102.88 106.21 04/13/2025 19:46:22 -81.13, 102.98 106.19 1.67 28
8 04/13/2025 20:36:32 81.16, -88.96 73.89 04/13/2025 20:35:47 81.16, -89.00 73.86 0.67 45
9 04/16/2025 15:20:12 -81.14, 169.63 107.15 04/16/2025 15:20:32 -81.14, 169.56 107.15 1.13 20



Historial Predications of SNOs between METOP-C and LANDSAT-8
